Location: Grasslands National Park East Block
(49.0708°N, 106.5295°W)
Time: 02:09:52
(UTC-06:00)

Vanguard 2 Rocket - Visible Passes

Search period start: 20 September 2019 00:00
Search period end: 30 September 2019 00:00
Orbit: 554 x 3327 km, 32.9° (Epoch: 20 September)

Date Brightness Start Highest point End Pass type
(mag) Time Alt. Az. Time Alt. Az. Time Alt. Az.
23 Sep 8.4 20:00:55 10° SSW 20:02:19 11° S 20:03:37 10° SSE visible
25 Sep 8.4 20:14:07 10° SSW 20:16:05 12° S 20:17:51 10° SSE visible
27 Sep 8.6 20:28:07 10° SW 20:29:46 11° SSW 20:31:16 10° S visible
28 Sep 8.6 19:26:54 10° SW 19:30:46 16° SSW 19:33:50 10° SSE visible
